Location: D�derode
(51.8092°N, 10.1065°E)
Time: 05:37:30
(UTC+00:00)

SL-16 R/B - Pass Details

Date: 01 December 2020
Orbit: 842 x 846 km, 71.0° (Epoch: 23 January)

Event Time Altitude Azimuth Distance (km) Brightness Sun altitude
Rises 16:04:09 0° 281° (W) 3,404 6.3 -7.7°
Reaches altitude 10° 16:07:51 10° 305° (NW) 2,472 5.1 -8.2°
Maximum altitude 16:10:53 14° 338° (NNW) 2,170 4.3 -8.6°
Drops below altitude 10° 16:13:56 10° 11° (N) 2,477 4.3 -9.1°
Enters shadow 16:16:12 - 28° (NNE) 3,006 4.6 -9.4°
